カタログに戻る

STARLINK-30352

運用中通信VLEO
NORAD 57736·PAYLOAD·🇺🇸 United States

打ち上げ Sep 1, 2023 から Cape Canaveral Space Force Station

Loading…

次のパス (今後24時間)

TLE

最新Source: CelesTrak SupGP

元期: Sep 14, 2026, 22:11 UTC

1 57736C 23131E   26257.92479167 -.00018896  00000+0 -68431-3 0  2570
2 57736  43.0019 191.2598 0001416 264.6136 301.5030 15.27592426    18

AllMySatでSTARLINK-30352をリアルタイム追跡

Download on the App Store